Terug naar catalogus

STARLINK-32198

ActiefCommunicatieVLEO
NORAD 60321·PAYLOAD·🇺🇸 United States

Gelanceerd Jul 28, 2024 vanaf Vandenberg Space Force Base

Loading…

Volgende Passages (komende 24 uur)

TLE

VersSource: CelesTrak SupGP

Epoch: Sep 15, 2026, 03:37 UTC

1 60321C 24133W   26258.15118056  .00056119  00000+0  16582-2 0  2588
2 60321  53.1559 134.4247 0001053  68.5693 324.0486 15.34359097    17

Volg STARLINK-32198 in realtime met AllMySat

Download on the App Store